Location: Aldenham
(51.6667°N, 0.3500°W)
Time: 17:30:55
(UTC+00:00)

Okean 2 Rocket - Pass Details

Date: 18 November 2025
Orbit: 611 x 635 km, 82.5° (Epoch: 10 December)

Event Time Altitude Azimuth Distance (km) Brightness Sun altitude
Rises 18:49:03 0° 200° (SSW) 2,885 6.8 -24.7°
Reaches altitude 10° 18:51:19 10° 204° (SSW) 1,980 5.9 -25.1°
Maximum altitude 18:55:38 57° 284° (WNW) 729 3.6 -25.7°
Enters shadow 18:57:20 34° 347° (NNW) 1,030 4.2 -26.0°
